Location: St. Louis
(38.6270°N, 90.1994°W)
Time: 21:15:33
(UTC-06:00)

A-11 Canister half - Pass Details

Date: 29 November 2021
Orbit: 1524 x 1684 km, 47.3° (Epoch: 26 January)

Event Time Altitude Azimuth Distance (km) Brightness Sun altitude
Exits shadow 03:00:18 51° 58° (ENE) 2,015 9.6 -45.8°
Drops below altitude 10° 03:07:09 10° 60° (ENE) 3,886 11.6 -44.5°
Sets 03:10:15 0° 61° (ENE) 4,854 12.3 -43.9°
